CW4185 Weather Reports


time (UTC)temp
F
wind
direction
speed
knots
gust
knots
rain 1hr
in
rain 24hr
in
rain mn
in
humidity
%
barometer
mb
20260903082146 79 44 0.0 0.0 0.00 0.00 0.00 97 1013.9
20260903081647 79 129 0.0 0.0 0.00 0.00 0.00 96 1014.2
20260903081147 79 231 0.0 0.9 0.00 0.00 0.00 96 1013.9
20260903080647 79 242 0.0 0.9 0.00 0.00 0.00 96 1013.9
20260903080147 79 216 0.9 1.7 0.00 0.00 0.00 96 1014.2
20260903075646 79 183 0.9 1.7 0.00 0.00 0.00 96 1013.9
20260903075147 80 246 0.0 0.9 0.00 0.00 0.00 96 1014.2
20260903074654 80 250 0.9 1.7 0.00 0.00 0.00 96 1014.2
20260903074146 80 224 0.0 0.9 0.00 0.00 0.00 96 1013.9
20260903073647 80 279 0.0 0.9 0.00 0.00 0.00 96 1014.2
20260903073148 80 217 0.0 0.0 0.00 0.00 0.00 95 1014.2
20260903072650 80 238 0.0 0.9 0.00 0.00 0.00 95 1013.9
20260903072147 80 227 0.0 1.7 0.00 0.00 0.00 95 1014.2
20260903071647 80 256 0.0 0.9 0.00 0.00 0.00 95 1014.2
20260903071148 80 343 0.0 0.9 0.00 0.00 0.00 96 1014.2
20260903070646 80 315 0.0 0.9 0.00 0.00 0.00 96 1014.2
20260903070148 80 217 0.0 1.7 0.00 0.00 0.00 96 1014.6
20260903065647 80 235 0.9 1.7 0.00 0.00 0.00 96 1014.6
20260903065147 80 205 0.0 1.7 0.00 0.00 0.00 96 1014.6
20260903064646 80 223 0.9 1.7 0.00 0.00 0.00 96 1014.6
20260903064146 80 204 0.9 0.9 0.00 0.00 0.00 95 1014.6
20260903063646 80 220 0.0 0.9 0.00 0.00 0.00 95 1014.6
20260903063146 80 252 0.0 0.9 0.00 0.00 0.00 95 1014.6
20260903062647 80 242 0.0 0.9 0.00 0.00 0.00 95 1014.6
20260903062146 80 222 0.9 1.7 0.00 0.00 0.00 95 1014.9
20260903061648 80 231 0.9 1.7 0.00 0.00 0.00 95 1014.9
20260903061146 80 224 0.0 0.9 0.00 0.00 0.00 95 1014.9
20260903060646 80 259 0.0 0.9 0.00 0.00 0.00 95 1014.9
20260903060152 80 233 0.0 0.0 0.00 0.00 0.00 95 1014.6
20260903055648 80 224 0.0 0.9 0.00 0.00 0.00 95 1014.9
20260903055147 80 247 0.0 0.9 0.00 0.00 0.00 95 1014.9
20260903054646 80 227 0.0 1.7 0.00 0.00 0.00 96 1014.9
20260903054146 80 205 0.0 0.0 0.00 0.00 0.00 95 1015.2
20260903053647 80 293 0.0 0.0 0.00 0.00 0.00 95 1014.9
20260903053147 80 224 0.0 0.9 0.00 0.00 0.00 95 1014.9
20260903052646 80 184 0.9 0.9 0.00 0.00 0.00 95 1014.9
20260903052146 80 216 0.0 0.9 0.00 0.00 0.00 94 1014.9
20260903051647 81 180 0.0 0.9 0.00 0.00 0.00 93 1014.9
20260903051146 81 205 0.0 0.9 0.00 0.00 0.00 93 1015.2
20260903050647 81 229 0.0 1.7 0.00 0.00 0.00 94 1015.2
20260903050147 81 249 0.9 1.7 0.00 0.00 0.00 94 1015.2
20260903045647 81 217 0.0 0.9 0.00 0.00 0.68 93 1014.9
20260903045147 81 234 0.0 0.9 0.00 0.00 0.68 93 1015.2
20260903044647 81 344 0.0 0.9 0.00 0.00 0.68 93 1015.2
20260903044146 81 212 0.0 0.0 0.00 0.00 0.68 93 1015.2
20260903043647 81 224 0.0 0.0 0.00 0.00 0.68 92 1015.2
20260903043146 81 230 0.0 0.0 0.00 0.00 0.68 92 1015.2
20260903042647 81 224 0.0 0.0 0.00 0.00 0.68 92 1015.2
20260903042146 82 224 0.0 0.0 0.00 0.00 0.68 91 1015.2
20260903041646 82 230 0.0 0.9 0.00 0.00 0.68 91 1015.2
20260903041147 82 209 0.9 1.7 0.00 0.00 0.68 91 1015.2
20260903040647 82 228 0.9 1.7 0.00 0.00 0.68 91 1015.2
20260903040146 82 228 0.0 1.7 0.00 0.00 0.68 91 1015.2
20260903035646 82 220 0.9 1.7 0.00 0.00 0.68 91 1015.2
20260903035147 82 227 0.0 1.7 0.00 0.00 0.68 91 1015.6
20260903034646 82 175 1.7 1.7 0.00 0.00 0.68 91 1015.6
20260903034147 82 199 0.9 1.7 0.00 0.00 0.68 90 1015.6
20260903033646 82 249 0.0 0.9 0.00 0.00 0.68 90 1015.2
20260903033146 82 209 0.0 0.9 0.00 0.00 0.68 89 1015.6
20260903032647 83 149 0.0 0.0 0.00 0.00 0.68 88 1015.6
20260903032146 83 89 0.0 0.9 0.00 0.00 0.68 89 1015.2
20260903031646 82 144 0.0 1.7 0.00 0.00 0.68 90 1015.6
20260903031146 82 224 0.0 0.0 0.00 0.00 0.68 90 1015.6
20260903030647 82 224 0.0 0.9 0.00 0.00 0.68 90 1015.2
20260903030148 82 171 0.9 1.7 0.00 0.00 0.68 89 1015.2
20260903025646 82 195 0.0 0.9 0.00 0.00 0.68 89 1015.2
20260903025146 83 217 0.0 0.0 0.00 0.00 0.68 89 1015.6
20260903024647 83 180 0.0 0.0 0.00 0.00 0.68 88 1015.6
20260903024146 83 180 1.7 1.7 0.00 0.00 0.68 89 1015.6
20260903023646 83 175 1.7 1.7 0.00 0.00 0.68 89 1015.2
20260903023148 83 179 0.9 1.7 0.00 0.00 0.68 88 1015.2
20260903022648 83 168 0.0 1.7 0.00 0.00 0.68 88 1015.2
20260903022146 83 201 0.9 1.7 0.00 0.00 0.68 88 1015.2
20260903021646 83 200 1.7 1.7 0.00 0.00 0.68 88 1015.2
20260903021147 83 183 0.9 1.7 0.00 0.00 0.68 87 1015.2
20260903020647 83 202 0.9 1.7 0.00 0.00 0.68 87 1015.2
20260903020147 83 184 0.9 1.7 0.00 0.00 0.68 87 1015.2
20260903015647 83 173 1.7 1.7 0.00 0.00 0.68 86 1014.9
20260903015149 83 193 0.0 1.7 0.00 0.00 0.68 86 1014.9
20260903014646 83 184 0.0 1.7 0.00 0.00 0.68 86 1014.9
20260903014147 83 180 1.7 1.7 0.00 0.00 0.68 86 1014.9
20260903013648 84 165 1.7 2.6 0.00 0.00 0.68 85 1014.9
20260903013148 84 168 1.7 2.6 0.00 0.00 0.68 85 1014.6
20260903012651 84 169 0.9 1.7 0.00 0.00 0.68 85 1014.6
20260903012147 83 161 1.7 2.6 0.00 0.00 0.68 86 1014.6
20260903011649 84 179 0.9 2.6 0.00 0.00 0.68 85 1014.6
20260903011147 84 180 0.9 1.7 0.00 0.00 0.68 84 1014.6
20260903010647 84 168 1.7 2.6 0.00 0.00 0.68 84 1014.2
20260903010148 84 187 1.7 1.7 0.00 0.00 0.68 85 1014.6
20260903005646 84 210 1.7 1.7 0.00 0.00 0.68 85 1014.2
20260903005146 84 207 1.7 1.7 0.00 0.00 0.68 84 1014.2
20260903004647 84 212 1.7 1.7 0.00 0.00 0.68 84 1014.2
20260903004146 84 196 1.7 2.6 0.00 0.00 0.68 83 1014.2
20260903003647 84 175 2.6 3.5 0.00 0.00 0.68 83 1014.2
20260903003147 84 177 1.7 2.6 0.00 0.00 0.68 83 1014.2
20260903002647 84 199 1.7 2.6 0.00 0.00 0.68 82 1014.2
20260903002147 84 167 1.7 2.6 0.00 0.00 0.68 82 1014.2
20260903001647 85 178 1.7 2.6 0.00 0.00 0.68 82 1014.2
20260903001147 85 191 2.6 3.5 0.00 0.00 0.68 82 1014.2
20260903000647 85 182 2.6 2.6 0.00 0.00 0.68 82 1014.2
20260903000146 85 214 3.5 4.3 0.00 0.00 0.68 81 1014.2
20260902235646 85 185 1.7 5.2 0.00 0.00 0.68 80 1014.2
20260902235147 85 186 2.6 5.2 0.00 0.00 0.68 81 1014.2
20260902234646 85 181 2.6 4.3 0.00 0.00 0.68 80 1014.2
20260902234146 86 213 2.6 4.3 0.00 0.00 0.68 80 1014.2
20260902233646 86 242 1.7 3.5 0.00 0.00 0.68 79 1014.2
20260902233146 86 197 2.6 3.5 0.00 0.00 0.68 79 1014.6
20260902232646 86 191 3.5 5.2 0.00 0.00 0.68 78 1014.2
20260902232147 86 194 3.5 3.5 0.00 0.00 0.68 78 1014.6
20260902231647 86 198 4.3 5.2 0.00 0.00 0.68 78 1014.2
20260902231146 86 193 2.6 3.5 0.00 0.00 0.68 77 1014.2
20260902230647 86 177 4.3 5.2 0.00 0.00 0.68 76 1014.2
20260902230146 87 169 1.7 5.2 0.00 0.00 0.68 76 1014.2
20260902225647 87 174 1.7 3.5 0.00 0.00 0.68 76 1014.2
20260902225146 87 172 4.3 6.1 0.00 0.00 0.68 76 1014.2
20260902224646 87 192 1.7 4.3 0.00 0.00 0.68 76 1014.2
20260902224147 87 237 2.6 4.3 0.00 0.00 0.68 76 1014.2
20260902223646 87 158 1.7 6.1 0.00 0.00 0.68 74 1014.2
20260902223147 87 210 4.3 5.2 0.00 0.00 0.68 74 1014.2
20260902222648 87 197 3.5 5.2 0.00 0.00 0.68 74 1014.2
20260902222147 87 208 6.1 7.8 0.00 0.00 0.68 75 1014.2
20260902221646 87 224 5.2 7.0 0.00 0.00 0.68 75 1014.6
20260902221146 87 205 3.5 5.2 0.00 0.00 0.68 74 1014.6
20260902220647 88 198 3.5 5.2 0.00 0.00 0.68 75 1014.9
20260902220146 88 254 2.6 3.5 0.00 0.00 0.68 73 1014.9
20260902215647 87 257 1.7 3.5 0.00 0.00 0.68 76 1014.6
20260902215146 86 339 0.0 2.6 0.00 0.00 0.68 75 1014.9
20260902214647 85 269 0.0 2.6 0.00 0.00 0.68 81 1014.6
20260902214150 84 337 0.0 3.5 0.00 0.00 0.68 82 1014.9
20260902213648 83 314 0.0 2.6 0.00 0.00 0.68 87 1014.9
20260902213146 82 261 1.7 2.6 0.02 0.00 0.68 90 1015.2
20260902212646 82 227 2.6 4.3 0.05 0.00 0.68 90 1014.9
20260902212146 81 274 4.3 5.2 0.02 0.00 0.67 91 1014.9
20260902211646 80 326 3.5 4.3 0.02 0.00 0.67 92 1014.9
20260902211147 80 303 2.6 4.3 0.02 0.00 0.67 91 1015.2
20260902210648 79 319 3.5 7.8 0.00 0.00 0.67 90 1014.9
20260902210147 79 299 4.3 7.8 0.02 0.00 0.67 91 1015.2
20260902205646 79 283 4.3 6.1 0.02 0.00 0.67 91 1015.6
20260902205146 78 325 0.0 4.3 0.00 0.00 0.66 92 1015.6
20260902204646 78 15 1.7 6.1 0.05 0.00 0.66 96 1015.6
20260902204147 78 289 5.2 7.8 0.12 0.00 0.66 96 1015.2
20260902203646 78 305 7.0 7.8 0.28 0.00 0.65 97 1015.6
20260902203147 78 298 7.0 10.4 0.76 0.00 0.64 97 1015.6
20260902202646 78 289 7.0 7.8 1.61 0.00 0.60 97 1015.9
20260902202148 78 259 2.6 3.5 0.94 0.00 0.49 97 1015.9
20260902201646 78 238 4.3 7.0 0.07 0.00 0.33 96 1015.9
20260902201147 78 279 9.6 12.2 0.97 0.00 0.33 97 1015.6
20260902200647 78 269 7.8 12.2 1.84 0.00 0.31 97 1015.2
20260902200146 80 201 10.4 15.6 1.11 0.00 0.18 94 1015.6
20260902195646 82 176 6.1 13.0 0.00 0.00 0.00 87 1015.6
20260902195146 84 209 7.8 13.0 0.00 0.00 0.00 85 1015.2
20260902194646 84 213 6.1 13.9 0.00 0.00 0.00 83 1015.6
20260902194146 84 244 4.3 11.3 0.00 0.00 0.00 83 1015.2
20260902193646 85 206 6.1 11.3 0.00 0.00 0.00 81 1015.6
20260902193146 86 188 7.0 8.7 0.00 0.00 0.00 80 1015.6
20260902192647 86 197 7.0 11.3 0.00 0.00 0.00 78 1015.6
20260902192147 90 202 6.1 11.3 0.00 0.00 0.00 69 1015.6
20260902191648 93 175 8.7 8.7 0.00 0.00 0.00 62 1015.6
20260902191150 94 129 0.9 7.0 0.00 0.00 0.00 61 1015.2
20260902190647 94 173 2.6 4.3 0.00 0.00 0.00 61 1015.2
20260902190146 94 162 4.3 7.8 0.00 0.00 0.00 59 1015.6
20260902185646 94 198 1.7 3.5 0.00 0.00 0.00 60 1015.6
20260902185147 93 55 0.9 4.3 0.00 0.00 0.00 60 1015.9
20260902184646 93 58 3.5 7.8 0.00 0.00 0.00 58 1015.9
20260902184146 93 50 4.3 6.1 0.00 0.00 0.00 60 1015.9
20260902183647 92 65 3.5 4.3 0.00 0.00 0.00 62 1015.9
20260902183146 93 96 4.3 5.2 0.00 0.00 0.00 62 1016.3
20260902182646 92 79 3.5 5.2 0.00 0.00 0.00 60 1016.3
20260902182149 92 24 4.3 7.8 0.00 0.00 0.00 60 1016.3
20260902181647 92 58 3.5 7.0 0.00 0.00 0.00 59 1015.9
20260902181148 92 52 1.7 5.2 0.00 0.00 0.00 63 1015.9
20260902180647 92 174 1.7 5.2 0.00 0.00 0.00 64 1015.9
20260902180148 91 47 3.5 8.7 0.00 0.00 0.00 63 1016.3
20260902175648 91 28 4.3 7.8 0.00 0.00 0.00 65 1016.3
20260902175147 91 70 6.1 7.0 0.00 0.00 0.00 65 1015.9
20260902174647 91 78 5.2 7.8 0.00 0.00 0.00 67 1016.3
20260902173714 91 40 5.2 9.6 0.00 0.00 0.00 67 1016.6
20260902173147 90 27 5.2 8.7 0.00 0.00 0.00 68 1016.6
20260902172649 91 19 5.2 8.7 0.00 0.00 0.00 68 1016.6
20260902172147 91 54 4.3 8.7 0.00 0.00 0.00 67 1016.6
20260902171647 91 44 5.2 7.0 0.00 0.00 0.00 69 1016.9
20260902171147 90 79 4.3 7.8 0.00 0.00 0.00 69 1016.9
20260902170646 90 46 5.2 6.1 0.00 0.00 0.00 70 1016.9
20260902170146 90 32 4.3 6.1 0.00 0.00 0.00 71 1016.9
20260902165647 89 44 3.5 9.6 0.00 0.00 0.00 72 1017.3
20260902165150 89 58 3.5 6.1 0.00 0.00 0.00 72 1016.9
20260902164646 89 28 2.6 4.3 0.00 0.00 0.00 75 1016.9
20260902164146 90 358 1.7 5.2 0.00 0.00 0.00 72 1017.3
20260902163649 90 324 2.6 6.1 0.00 0.00 0.00 72 1017.3
20260902163146 90 16 4.3 6.1 0.00 0.00 0.00 72 1017.3
20260902162648 90 45 0.0 7.0 0.00 0.00 0.00 72 1017.3
20260902162150 90 13 4.3 7.8 0.00 0.00 0.00 71 1017.6
20260902161646 90 39 4.3 7.0 0.00 0.00 0.00 72 1017.6
20260902161147 89 43 3.5 7.8 0.00 0.00 0.00 72 1017.3
20260902160646 89 25 0.0 4.3 0.00 0.00 0.00 73 1017.3
20260902160147 90 34 4.3 5.2 0.00 0.00 0.00 72 1017.3
20260902155646 89 56 3.5 5.2 0.00 0.00 0.00 70 1017.3
20260902155146 89 64 3.5 5.2 0.00 0.00 0.00 70 1017.3
20260902154647 90 80 3.5 6.1 0.00 0.00 0.00 70 1017.6
20260902154147 90 334 1.7 7.0 0.00 0.00 0.00 70 1017.3
20260902153205 90 54 2.6 5.2 0.00 0.00 0.00 70 1017.6
20260902152647 90 52 2.6 5.2 0.00 0.00 0.00 71 1017.3
20260902152148 89 35 1.7 4.3 0.00 0.00 0.00 73 1017.3
20260902151647 88 166 2.6 5.2 0.00 0.00 0.00 76 1017.3
20260902151147 88 35 4.3 6.1 0.00 0.00 0.00 74 1017.3
20260902150647 88 33 4.3 6.1 0.00 0.00 0.00 75 1017.3
20260902150147 88 56 2.6 5.2 0.00 0.00 0.00 76 1017.3
20260902145647 87 42 0.9 6.1 0.00 0.00 0.00 78 1017.3
20260902145146 88 360 1.7 6.1 0.00 0.00 0.00 76 1017.3
20260902144646 88 46 2.6 5.2 0.00 0.00 0.00 78 1017.3
20260902144146 88 26 2.6 6.1 0.00 0.00 0.00 77 1017.3
20260902143648 88 44 1.7 2.6 0.00 0.00 0.00 77 1017.3
20260902143146 87 85 1.7 4.3 0.00 0.00 0.00 79 1017.3
20260902142647 87 357 1.7 4.3 0.00 0.00 0.00 78 1017.3
20260902142147 87 92 3.5 5.2 0.00 0.00 0.00 80 1017.3
20260902141647 87 66 4.3 6.1 0.00 0.00 0.00 80 1017.6
20260902141147 87 49 2.6 5.2 0.00 0.00 0.00 80 1017.3
20260902140649 86 29 3.5 7.0 0.00 0.00 0.00 81 1017.3
20260902140147 86 65 5.2 5.2 0.00 0.00 0.00 82 1017.3
20260902135647 87 66 4.3 5.2 0.00 0.00 0.00 81 1017.3
20260902135146 87 341 0.0 2.6 0.00 0.00 0.00 81 1017.3
20260902134647 86 58 1.7 3.5 0.00 0.00 0.00 83 1017.3
20260902134148 86 69 3.5 4.3 0.00 0.00 0.00 83 1017.3
20260902133646 86 84 0.0 3.5 0.00 0.00 0.00 83 1016.9
20260902133147 86 5 0.9 1.7 0.00 0.00 0.00 83 1016.9
20260902132646 85 67 1.7 2.6 0.00 0.00 0.00 86 1017.3
20260902132146 84 62 2.6 4.3 0.00 0.00 0.00 87 1016.9
20260902131647 85 32 2.6 2.6 0.00 0.00 0.00 86 1016.9
20260902131147 84 13 0.0 2.6 0.00 0.00 0.00 87 1017.3
20260902130646 84 46 0.9 2.6 0.00 0.00 0.00 88 1016.9
20260902130150 83 279 0.0 3.5 0.00 0.00 0.00 90 1017.3
20260902125647 82 348 1.7 4.3 0.00 0.00 0.00 91 1016.9
20260902125147 82 2 1.7 3.5 0.00 0.00 0.00 91 1016.6
20260902124647 82 38 3.5 4.3 0.00 0.00 0.00 91 1016.9
20260902124147 82 16 0.9 3.5 0.00 0.00 0.00 91 1016.6
20260902123647 83 335 2.6 3.5 0.00 0.00 0.00 90 1016.9
20260902123146 84 166 0.0 2.6 0.00 0.00 0.00 89 1016.6
20260902122650 83 37 0.9 4.3 0.00 0.00 0.00 90 1016.3
20260902122147 83 31 2.6 4.3 0.00 0.00 0.00 91 1016.6
20260902121646 82 19 3.5 4.3 0.00 0.00 0.00 91 1016.6
20260902121146 82 359 2.6 4.3 0.00 0.00 0.00 92 1016.6
20260902120213 81 61 2.6 5.2 0.00 0.00 0.00 94 1016.6
20260902115646 81 40 2.6 4.3 0.00 0.00 0.00 95 1016.3
20260902115147 80 7 1.7 3.5 0.00 0.00 0.00 95 1016.3
20260902114646 80 163 1.7 2.6 0.00 0.00 0.00 96 1016.3
20260902114146 80 38 1.7 2.6 0.00 0.00 0.00 97 1016.3
20260902113646 79 331 0.9 2.6 0.00 0.00 0.00 97 1015.9
20260902113147 79 209 0.9 1.7 0.00 0.00 0.00 96 1016.3
20260902112647 80 227 0.9 1.7 0.00 0.00 0.00 96 1015.9
20260902112147 80 195 0.0 0.9 0.00 0.00 0.00 95 1015.9
20260902111647 80 135 0.0 0.9 0.00 0.00 0.00 95 1015.9
20260902111146 80 117 0.0 1.7 0.00 0.00 0.00 96 1015.9
20260902110647 79 44 0.0 1.7 0.00 0.00 0.00 96 1015.9
20260902110147 79 190 0.0 0.0 0.00 0.00 0.00 96 1015.9
20260902105647 80 201 0.0 0.9 0.00 0.00 0.00 96 1015.9
20260902105150 80 224 0.0 0.9 0.00 0.00 0.00 95 1015.9
20260902104646 80 157 0.0 0.9 0.00 0.00 0.00 95 1015.6
20260902104147 80 117 0.0 0.0 0.00 0.00 0.00 95 1015.6
20260902103647 80 23 0.0 1.7 0.00 0.00 0.00 96 1015.6
20260902103146 80 157 0.0 0.9 0.00 0.00 0.00 95 1015.6
20260902102646 80 218 0.0 0.9 0.00 0.00 0.00 95 1015.6
20260902102146 80 142 0.0 0.9 0.00 0.00 0.00 95 1015.6
20260902101646 80 104 0.0 0.9 0.00 0.00 0.00 95 1015.6
20260902101147 80 22 0.9 1.7 0.00 0.00 0.00 96 1015.6
20260902100646 80 135 0.0 0.9 0.00 0.00 0.00 95 1015.6
20260902100147 80 89 0.0 0.9 0.00 0.00 0.00 95 1015.6
20260902095646 79 217 0.0 0.9 0.00 0.00 0.00 95 1015.6
20260902095147 80 135 0.0 0.0 0.00 0.00 0.00 95 1015.6
20260902094646 80 135 0.0 0.9 0.00 0.00 0.00 95 1015.6
20260902094147 79 42 0.9 1.7 0.00 0.00 0.00 95 1015.2
20260902093647 79 124 0.0 1.7 0.00 0.00 0.00 96 1015.2
20260902093146 79 242 0.0 0.9 0.00 0.00 0.00 96 1015.2
20260902092647 79 213 1.7 1.7 0.00 0.00 0.00 96 1015.2
20260902092146 79 216 0.9 0.9 0.00 0.00 0.00 95 1015.2
20260902091647 79 224 0.0 0.9 0.00 0.00 0.00 95 1015.6
20260902091146 80 221 0.9 0.9 0.00 0.00 0.00 95 1015.2
20260902090647 80 215 0.9 1.7 0.00 0.00 0.00 95 1015.2
20260902090146 80 201 0.9 0.9 0.00 0.00 0.00 94 1015.2
20260902085646 80 205 0.0 1.7 0.00 0.00 0.00 93 1015.2
20260902085147 80 89 0.0 1.7 0.00 0.00 0.00 94 1015.2
20260902084647 80 75 1.7 2.6 0.00 0.00 0.00 94 1015.2
20260902084147 80 67 0.9 1.7 0.00 0.00 0.00 94 1015.2
20260902083646 80 89 0.9 1.7 0.00 0.00 0.00 94 1015.2
20260902083147 80 72 0.9 1.7 0.00 0.00 0.00 94 1014.9
20260902082646 79 87 0.0 1.7 0.00 0.00 0.00 95 1015.2